• In Uzbekistan
  • List of Countries
  • For 7 days
  • Water Temperature
  • Weather Map
  • Weather Widgets
  • user-avatar
    Login

    Hourly Weather Ciudad Bolívar

    Today, 27 February, Thursday

    Time Temperature Precipitation Wind Pressure Humidity
    00:00 +28°C° 0 mm 6 mps 753 mmHg 64%
    01:00 +27°C° 0 mm 6 mps 753 mmHg 67%
    02:00 +26°C° 0 mm 5 mps 752 mmHg 69%
    03:00 +26°C° 0 mm 5 mps 753 mmHg 74%
    04:00 +26°C° 0 mm 5 mps 753 mmHg 78%
    05:00 +25°C° 0 mm 5 mps 753 mmHg 82%
    06:00 +26°C° 0 mm 5 mps 753 mmHg 80%
    07:00 +26°C° 0 mm 5 mps 754 mmHg 78%
    08:00 +27°C° 0 mm 5 mps 754 mmHg 76%
    09:00 +29°C° 0 mm 5 mps 755 mmHg 66%
    10:00 +32°C° 0 mm 5 mps 755 mmHg 56%
    11:00 +34°C° 0 mm 4 mps 755 mmHg 47%
    12:00 +35°C° 0 mm 4 mps 754 mmHg 40%
    13:00 +37°C° 0 mm 4 mps 753 mmHg 34%
    14:00 +38°C° 0 mm 3 mps 752 mmHg 28%
    15:00 +38°C° 0 mm 4 mps 751 mmHg 28%
    16:00 +39°C° 0 mm 5 mps 751 mmHg 27%
    17:00 +39°C° 0 mm 5 mps 750 mmHg 27%
    18:00 +36°C° 0 mm 5 mps 751 mmHg 33%
    19:00 +35°C° 0 mm 6 mps 751 mmHg 39%
    20:00 +33°C° 0 mm 6 mps 752 mmHg 46%
    21:00 +32°C° 0 mm 6 mps 752 mmHg 50%
    22:00 +30°C° 0 mm 7 mps 753 mmHg 55%
    23:00 +29°C° 0 mm 7 mps 754 mmHg 60%

    Tomorrow, 28 February, Friday

    Time Temperature Precipitation Wind Pressure Humidity
    00:00 +28°C° 0 mm 6 mps 753 mmHg 63%
    01:00 +27°C° 0 mm 6 mps 753 mmHg 66%
    02:00 +26°C° 0 mm 5 mps 753 mmHg 70%
    03:00 +26°C° 0 mm 5 mps 753 mmHg 74%
    04:00 +25°C° 0 mm 4 mps 753 mmHg 78%
    05:00 +25°C° 0 mm 4 mps 753 mmHg 82%
    06:00 +25°C° 0 mm 4 mps 754 mmHg 79%
    07:00 +26°C° 0 mm 4 mps 754 mmHg 76%
    08:00 +26°C° 0 mm 4 mps 755 mmHg 73%
    09:00 +29°C° 0 mm 5 mps 755 mmHg 62%
    10:00 +32°C° 0 mm 5 mps 755 mmHg 51%
    11:00 +35°C° 0 mm 5 mps 755 mmHg 40%
    12:00 +36°C° 0 mm 5 mps 754 mmHg 36%
    13:00 +37°C° 0 mm 5 mps 753 mmHg 32%
    14:00 +39°C° 0 mm 5 mps 752 mmHg 28%
    15:00 +39°C° 0 mm 5 mps 751 mmHg 29%
    16:00 +39°C° 0 mm 5 mps 751 mmHg 30%
    17:00 +39°C° 0 mm 5 mps 750 mmHg 31%
    18:00 +36°C° 0 mm 5 mps 750 mmHg 37%
    19:00 +34°C° 0 mm 6 mps 751 mmHg 44%
    20:00 +32°C° 0 mm 6 mps 751 mmHg 51%
    21:00 +32°C° 0 mm 6 mps 752 mmHg 55%
    22:00 +30°C° 0 mm 6 mps 753 mmHg 60%
    23:00 +29°C° 0 mm 6 mps 753 mmHg 64%

    Day after tomorrow, 29 February, Saturday

    Time Temperature Precipitation Wind Pressure Humidity
    00:00 +28°C° 0 mm 6 mps 753 mmHg 66%
    01:00 +27°C° 0 mm 6 mps 753 mmHg 68%
    02:00 +26°C° 0 mm 5 mps 753 mmHg 70%
    03:00 +26°C° 0 mm 5 mps 753 mmHg 73%
    04:00 +25°C° 0 mm 4 mps 753 mmHg 75%
    05:00 +25°C° 0 mm 4 mps 753 mmHg 78%
    06:00 +26°C° 0 mm 4 mps 754 mmHg 76%
    07:00 +26°C° 0 mm 5 mps 754 mmHg 73%
    08:00 +27°C° 0 mm 5 mps 755 mmHg 71%
    09:00 +28°C° 0 mm 5 mps 755 mmHg 65%
    10:00 +30°C° 0 mm 5 mps 755 mmHg 58%
    11:00 +33°C° 0 mm 5 mps 755 mmHg 51%
    12:00 +34°C° 0 mm 5 mps 754 mmHg 47%
    13:00 +36°C° 0 mm 4 mps 753 mmHg 43%
    14:00 +37°C° 0 mm 4 mps 752 mmHg 38%
    15:00 +37°C° 0 mm 4 mps 751 mmHg 39%
    16:00 +37°C° 0 mm 5 mps 751 mmHg 39%
    17:00 +37°C° 0 mm 5 mps 750 mmHg 39%
    18:00 +35°C° 0 mm 5 mps 751 mmHg 44%
    19:00 +33°C° 0 mm 5 mps 751 mmHg 49%
    20:00 +32°C° 0 mm 6 mps 751 mmHg 54%
    21:00 +30°C° 0 mm 6 mps 752 mmHg 57%
    22:00 +29°C° 0 mm 6 mps 753 mmHg 60%
    23:00 +28°C° 0 mm 6 mps 753 mmHg 63%

    1 March, Sunday

    Time Temperature Precipitation Wind Pressure Humidity
    00:00 +28°C° 0 mm 6 mps 753 mmHg 66%
    01:00 +27°C° 0 mm 6 mps 753 mmHg 70%
    02:00 +26°C° 0 mm 5 mps 753 mmHg 73%
    03:00 +25°C° 0 mm 5 mps 753 mmHg 76%
    04:00 +25°C° 0 mm 4 mps 753 mmHg 78%
    05:00 +25°C° 0 mm 4 mps 753 mmHg 81%
    06:00 +25°C° 0 mm 4 mps 754 mmHg 79%
    07:00 +26°C° 0 mm 5 mps 754 mmHg 77%
    08:00 +26°C° 0 mm 5 mps 755 mmHg 74%
    09:00 +29°C° 0 mm 5 mps 755 mmHg 63%
    10:00 +32°C° 0 mm 5 mps 755 mmHg 52%
    11:00 +35°C° 0 mm 4 mps 755 mmHg 41%
    12:00 +36°C° 0 mm 4 mps 753 mmHg 37%
    13:00 +37°C° 0 mm 4 mps 752 mmHg 32%
    14:00 +40°C° 0 mm 4 mps 751 mmHg 28%
    15:00 +40°C° 0 mm 4 mps 750 mmHg 28%
    16:00 +40°C° 0 mm 4 mps 750 mmHg 27%
    17:00 +40°C° 0 mm 5 mps 749 mmHg 26%
    18:00 +37°C° 0 mm 5 mps 750 mmHg 33%
    19:00 +35°C° 0 mm 6 mps 750 mmHg 40%
    20:00 +33°C° 0 mm 7 mps 750 mmHg 47%
    21:00 +32°C° 0 mm 7 mps 751 mmHg 52%
    22:00 +29°C° 0 mm 7 mps 752 mmHg 57%
    23:00 +28°C° 0 mm 7 mps 753 mmHg 62%

    2 March, Monday

    Time Temperature Precipitation Wind Pressure Humidity
    00:00 +27°C° 0 mm 6 mps 752 mmHg 65%
    01:00 +27°C° 0 mm 6 mps 752 mmHg 68%
    02:00 +26°C° 0 mm 5 mps 752 mmHg 71%
    03:00 +25°C° 0 mm 4 mps 752 mmHg 74%
    04:00 +25°C° 0 mm 4 mps 752 mmHg 77%
    05:00 +24°C° 0 mm 3 mps 752 mmHg 80%
    06:00 +25°C° 0 mm 4 mps 753 mmHg 78%
    07:00 +26°C° 0 mm 4 mps 754 mmHg 76%
    08:00 +26°C° 0 mm 4 mps 754 mmHg 73%
    09:00 +29°C° 0 mm 4 mps 754 mmHg 62%
    10:00 +32°C° 0 mm 5 mps 754 mmHg 51%
    11:00 +34°C° 0 mm 5 mps 754 mmHg 40%
    12:00 +36°C° 0 mm 4 mps 753 mmHg 34%
    13:00 +37°C° 0 mm 4 mps 752 mmHg 29%
    14:00 +38°C° 0 mm 4 mps 750 mmHg 23%
    15:00 +38°C° 0 mm 4 mps 750 mmHg 23%
    16:00 +39°C° 0 mm 5 mps 749 mmHg 24%
    17:00 +39°C° 0 mm 5 mps 749 mmHg 24%
    18:00 +36°C° 0 mm 5 mps 749 mmHg 30%
    19:00 +34°C° 0 mm 5 mps 750 mmHg 37%
    20:00 +32°C° 0 mm 6 mps 750 mmHg 43%
    21:00 +30°C° 0 mm 6 mps 751 mmHg 49%
    22:00 +29°C° 0 mm 6 mps 752 mmHg 55%
    23:00 +28°C° 0 mm 6 mps 753 mmHg 60%

    3 March, Tuesday

    Time Temperature Precipitation Wind Pressure Humidity
    00:00 +27°C° 0 mm 6 mps 752 mmHg 64%
    01:00 +26°C° 0 mm 6 mps 752 mmHg 67%
    02:00 +26°C° 0 mm 5 mps 752 mmHg 70%
    03:00 +25°C° 0 mm 5 mps 752 mmHg 73%
    04:00 +25°C° 0 mm 4 mps 752 mmHg 76%
    05:00 +23°C° 0 mm 4 mps 752 mmHg 79%
    06:00 +25°C° 0 mm 4 mps 753 mmHg 76%
    07:00 +25°C° 0 mm 4 mps 754 mmHg 73%
    08:00 +26°C° 0 mm 5 mps 754 mmHg 70%
    09:00 +28°C° 0 mm 5 mps 754 mmHg 59%
    10:00 +32°C° 0 mm 5 mps 754 mmHg 49%
    11:00 +34°C° 0 mm 4 mps 754 mmHg 38%
    12:00 +35°C° 0 mm 4 mps 753 mmHg 33%
    13:00 +37°C° 0 mm 4 mps 752 mmHg 28%
    14:00 +38°C° 0 mm 3 mps 750 mmHg 22%
    15:00 +38°C° 0 mm 4 mps 750 mmHg 22%
    16:00 +38°C° 0 mm 4 mps 749 mmHg 21%
    17:00 +38°C° 0 mm 4 mps 749 mmHg 21%
    18:00 +36°C° 0 mm 4 mps 749 mmHg 24%
    19:00 +34°C° 0 mm 4 mps 750 mmHg 28%
    20:00 +32°C° 0 mm 4 mps 750 mmHg 32%
    21:00 +30°C° 0 mm 5 mps 751 mmHg 38%
    22:00 +29°C° 0 mm 6 mps 752 mmHg 45%
    23:00 +28°C° 0 mm 7 mps 752 mmHg 51%
    Show more